QPF
0.00 0.00 0.00 0.00 0.00 0.00 0.00 0.00 0.00 0.00 0.00 0.00 0.00 0.00 0.00 0.00 0.00 0.00 0.00 0.00 0.00 0.00 0.00 0.00 0.00 0.00 0.00 0.00 0.00 0.00 0.00 0.00 0.00 0.00 0.00 0.00 0.00 0.00 0.00 0.00 0.00 0.00 0.00
0.00 0.00 0.00 0.00 0.00 0.00 0.00 0.00 0.00 0.00 0.00 0.00 0.00 0.00 0.00 0.00 0.00 0.00 0.00 0.00 0.00 0.00 0.00 0.00 0.00 0.00 0.00 0.00 0.00 0.00 0.00 0.00 0.00 0.00 0.00 0.00 0.00 0.00 0.00 0.00 0.00 0.00 0.00
0.00 0.00 0.00 0.00 0.00 0.00 0.00 0.00 0.00 0.00 0.00 0.00 0.00 0.00 0.00 0.00 0.00 0.00 0.00 0.00 0.00 0.00 0.00 0.00 0.00 0.00 0.00 0.00 0.00 0.00 0.00 0.00 0.00 0.00 0.00 0.00 0.00 0.00 0.00 0.00 0.00 0.00 0.00
0.00 0.00 0.00 0.00 0.00 0.00 0.00 0.00 0.00 0.00 0.00 0.00 0.00 0.00 0.00 0.00 0.00 0.00 0.00 0.00 0.00 0.00 0.00 0.00 0.00 0.00 0.00 0.00 0.00 0.00 0.00 0.00 0.00 0.00 0.00 0.00 0.00 0.00 0.00 0.00 0.00 0.00 0.00
0.00 0.00 0.00 0.00 0.00 0.00 0.00 0.00 0.00 0.00 0.00 0.00 0.00 0.00 0.00 0.00 0.00 0.00 0.00 0.00 0.00 0.00 0.00 0.00 0.00 0.00 0.00 0.00 0.00 0.00 0.00 0.00 0.00 0.00 0.00 0.00 0.00 0.00 0.00 0.00 0.00 0.00 0.00
0.00 0.00 0.00 0.00 0.00 0.00 0.00 0.00 0.00 0.00 0.00 0.00 0.00 0.00 0.00 0.00 0.00 0.00 0.00 0.00 0.00 0.00 0.00 0.00 0.00 0.00 0.00 0.00 0.00 0.00 0.00 0.00 0.00 0.00 0.00 0.00 0.00 0.00 0.00 0.00 0.00 0.00 0.00
0.00 0.00 0.00 0.00 0.00 0.00 0.00 0.00 0.00 0.00 0.00 0.00 0.00 0.00 0.00 0.00 0.00 0.00 0.00 0.00 0.00 0.00 0.00 0.00 0.00 0.00 0.00 0.00 0.00 0.00 0.00 0.00 0.00 0.00 0.00 0.00 0.00 0.00 0.00 0.00 0.00 0.00 0.00
0.00 0.00 0.00 0.00 0.00 0.00 0.00 0.00 0.00 0.00 0.00 0.00 0.00 0.00 0.00 0.00 0.00 0.00 0.00 0.00 0.00 0.00 0.00 0.00 0.00 0.00 0.00 0.00 0.00 0.00 0.00 0.00 0.00 0.00 0.00 0.00 0.00 0.00 0.00 0.00 0.00 0.00 0.00
0.00 0.00 0.00 0.00 0.00 0.00 0.00 0.00 0.00 0.00 0.00 0.00 0.00 0.00 0.00 0.00 0.00 0.00 0.00 0.00 0.00 0.00 0.00 0.00 0.00 0.00 0.00 0.00 0.00 0.00 0.00 0.00 0.00 0.00 0.00 0.00 0.00 0.00 0.00 0.00 0.00 0.00 0.00
0.00 0.00 0.00 0.00 0.00 0.00 0.00 0.00 0.00 0.00 0.00 0.00 0.00 0.00 0.00 0.00 0.00 0.00 0.00 0.00 0.00 0.00 0.00 0.00 0.00 0.00 0.00 0.00 0.00 0.00 0.00 0.00 0.00 0.00 0.00 0.00 0.00 0.00 0.00 0.00 0.00 0.00 0.00
0.00 0.00 0.00 0.00 0.00 0.00 0.00 0.00 0.00 0.00 0.00 0.00 0.00 0.00 0.00 0.00 0.00 0.00 0.00 0.00 0.00 0.00 0.00 0.00 0.00 0.00 0.00 0.00 0.00 0.00 0.00 0.00 0.00 0.00 0.00 0.00 0.00 0.00 0.00 0.00 0.00 0.00 0.00
0.00 0.00 0.00 0.00 0.00 0.00 0.00 0.00 0.00 0.00 0.00 0.00 0.00 0.00 0.00 0.00 0.00 0.00 0.00 0.00 0.00 0.00 0.00 0.00 0.00 0.00 0.00 0.00 0.00 0.00 0.00 0.00 0.00 0.00 0.00 0.00 0.00 0.00 0.00 0.00 0.00 0.00 0.00
0.00 0.00 0.00 0.00 0.00 0.00 0.00 0.00 0.00 0.00 0.00 0.00 0.00 0.00 0.00 0.00 0.00 0.00 0.00 0.00 0.00 0.00 0.00 0.00 0.00 0.00 0.00 0.00 0.00 0.00 0.00 0.00 0.00 0.00 0.00 0.00 0.00 0.00 0.00 0.00 0.00 0.00 0.00
0.00 0.00 0.00 0.00 0.00 0.00 0.00 0.00 0.00 0.00 0.00 0.00 0.00 0.00 0.00 0.00 0.00 0.00 0.00 0.00 0.00 0.00 0.00 0.00 0.00 0.00 0.00 0.00 0.00 0.00 0.00 0.00 0.00 0.00 0.00 0.00 0.00 0.00 0.00 0.00 0.00 0.00 0.00
0.00 0.00 0.00 0.00 0.00 0.00 0.00 0.00 0.00 0.00 0.00 0.00 0.00 0.00 0.00 0.00 0.00 0.00 0.00 0.00 0.00 0.00 0.00 0.00 0.00 0.00 0.00 0.00 0.00 0.00 0.00 0.00 0.00 0.00 0.00 0.00 0.00 0.00 0.00 0.00 0.00 0.00 0.00
0.00 0.00 0.00 0.00 0.00 0.00 0.00 0.00 0.00 0.00 0.00 0.00 0.00 0.00 0.00 0.00 0.00 0.00 0.00 0.00 0.00 0.00 0.00 0.00 0.00 0.00 0.00 0.00 0.00 0.00 0.00 0.00 0.00 0.00 0.00 0.00 0.00 0.00 0.00 0.00 0.00 0.00 0.00
0.00 0.00 0.00 0.00 0.00 0.00 0.00 0.00 0.00 0.00 0.00 0.00 0.00 0.00 0.00 0.00 0.00 0.00 0.00 0.00 0.00 0.00 0.00 0.00 0.00 0.00 0.00 0.00 0.00 0.00 0.00 0.00 0.00 0.00 0.00 0.00 0.00 0.00 0.00 0.00 0.00 0.00 0.00
0.00 0.00 0.00 0.00 0.00 0.00 0.00 0.00 0.00 0.00 0.00 0.00 0.00 0.00 0.00 0.00 0.00 0.00 0.00 0.00 0.00 0.00 0.00 0.00 0.00 0.00 0.00 0.00 0.00 0.00 0.00 0.00 0.00 0.00 0.00 0.00 0.00 0.00 0.00 0.00 0.00 0.00 0.00
0.00 0.00 0.00 0.00 0.00 0.00 0.00 0.00 0.00 0.00 0.00 0.00 0.00 0.00 0.00 0.00 0.00 0.00 0.00 0.00 0.00 0.00 0.00 0.00 0.00 0.00 0.00 0.00 0.00 0.00 0.00 0.00 0.00 0.00 0.00 0.00 0.00 0.00 0.00 0.00 0.00 0.00 0.00
0.00 0.00 0.00 0.00 0.00 0.00 0.00 0.00 0.00 0.00 0.00 0.00 0.00 0.00 0.00 0.00 0.00 0.00 0.00 0.00 0.00 0.00 0.00 0.00 0.00 0.00 0.00 0.00 0.00 0.00 0.00 0.00 0.00 0.00 0.00 0.00 0.00 0.00 0.00 0.00 0.00 0.00 0.00
0.00 0.00 0.00 0.00 0.00 0.00 0.00 0.00 0.00 0.00 0.00 0.00 0.00 0.00 0.00 0.00 0.00 0.00 0.00 0.00 0.00 0.00 0.00 0.00 0.00 0.00 0.00 0.00 0.00 0.00 0.00 0.00 0.00 0.00 0.00 0.00 0.00 0.00 0.00 0.00 0.00 0.00 0.00
0.00 0.00 0.00 0.00 0.00 0.00 0.00 0.00 0.00 0.00 0.00 0.00 0.00 0.00 0.00 0.00 0.00 0.00 0.00 0.00 0.00 0.00 0.00 0.00 0.00 0.00 0.00 0.00 0.00 0.00 0.00 0.00 0.00 0.00 0.00 0.00 0.00 0.00 0.00 0.00 0.00 0.00 0.00
0.00 0.00 0.00 0.00 0.00 0.00 0.00 0.00 0.00 0.00 0.00 0.00 0.00 0.00 0.00 0.00 0.00 0.00 0.00 0.00 0.00 0.00 0.00 0.00 0.00 0.00 0.00 0.00 0.00 0.00 0.00 0.00 0.00 0.00 0.00 0.00 0.00 0.00 0.00 0.00 0.00 0.00 0.00
0.00 0.00 0.00 0.00 0.00 0.00 0.00 0.00 0.00 0.00 0.00 0.00 0.00 0.00 0.00 0.00 0.00 0.00 0.00 0.00 0.00 0.00 0.00 0.00 0.00 0.00 0.00 0.00 0.00 0.00 0.00 0.00 0.00 0.00 0.00 0.00 0.00 0.00 0.00 0.00 0.00 0.00 0.00
0.00 0.00 0.00 0.00 0.00 0.00 0.00 0.00 0.00 0.00 0.00 0.00 0.00 0.00 0.00 0.00 0.00 0.00 0.00 0.00 0.00 0.00 0.00 0.00 0.00 0.00 0.00 0.00 0.00 0.00 0.00 0.00 0.00 0.00 0.00 0.00 0.00 0.00 0.00 0.00 0.00 0.00 0.00
0.00 0.00 0.00 0.00 0.00 0.00 0.00 0.00 0.00 0.00 0.00 0.00 0.00 0.00 0.00 0.00 0.00 0.00 0.00 0.00 0.00 0.00 0.00 0.00 0.00 0.00 0.00 0.00 0.00 0.00 0.00 0.00 0.00 0.00 0.00 0.00 0.00 0.00 0.00 0.00 0.00 0.00 0.00
MSLP
1019.29 1019.93 1020.57 1021.12 1021.59 1022.19 1022.76 1023.48 1024.07 1024.78 1025.22 1025.56 1026.02 1026.28 1026.66 1026.99 1027.21 1027.44 1028.01 1027.99 1028.22 1028.70 1028.84 1028.99 1029.21 1029.26 1029.30 1029.55 1029.85 1029.76 1029.65 1029.38 1029.00 1029.30 1030.12 1030.65 1031.02 1030.93 1031.26 1030.98 1030.65 1030.73 1030.76
1019.13 1019.71 1020.33 1021.08 1021.66 1022.17 1022.84 1023.47 1024.05 1024.76 1025.24 1025.43 1025.84 1026.18 1026.61 1026.96 1027.16 1027.28 1027.43 1028.23 1028.02 1028.48 1028.71 1028.97 1029.14 1029.36 1028.99 1029.03 1029.32 1029.70 1029.89 1029.70 1029.42 1029.27 1029.70 1030.45 1030.86 1030.98 1031.00 1030.79 1030.71 1030.85 1030.84
1019.14 1019.73 1020.40 1020.97 1021.56 1022.04 1022.72 1023.42 1023.91 1024.43 1024.96 1025.30 1025.58 1025.88 1026.37 1026.88 1027.09 1027.32 1027.37 1027.88 1028.07 1028.33 1028.55 1028.44 1028.49 1028.68 1028.81 1028.89 1028.98 1029.07 1029.53 1029.51 1029.34 1029.46 1029.54 1030.31 1030.77 1031.28 1030.86 1030.65 1030.47 1030.53 1030.77
1019.22 1019.48 1020.14 1020.66 1021.22 1022.04 1022.76 1023.35 1023.76 1024.12 1024.71 1025.05 1025.45 1025.80 1026.22 1026.56 1026.73 1026.94 1027.45 1027.87 1027.96 1028.18 1028.16 1028.30 1028.50 1028.50 1028.58 1028.96 1029.03 1029.23 1029.27 1029.24 1029.42 1029.53 1029.72 1029.98 1030.35 1031.03 1031.36 1030.77 1030.42 1030.47 1030.43
1018.99 1019.42 1019.92 1020.63 1021.27 1022.02 1022.78 1023.30 1023.87 1024.19 1024.66 1024.78 1025.21 1025.76 1026.27 1026.44 1026.71 1026.88 1027.19 1027.21 1027.52 1027.90 1028.44 1028.63 1028.77 1028.66 1029.21 1029.14 1028.95 1029.18 1029.28 1029.00 1029.16 1029.37 1029.66 1029.99 1030.03 1030.64 1030.90 1031.01 1030.93 1030.63 1030.36
1018.61 1019.05 1019.72 1020.53 1021.36 1022.02 1022.72 1023.29 1023.85 1024.24 1024.57 1024.68 1025.00 1025.59 1025.74 1025.70 1025.96 1026.36 1026.63 1026.92 1027.25 1027.81 1028.20 1028.48 1028.38 1029.03 1029.02 1029.12 1029.55 1029.58 1029.22 1028.89 1028.86 1029.16 1029.46 1029.61 1029.80 1030.25 1030.80 1031.01 1031.05 1030.83 1030.42
1018.25 1018.91 1019.57 1020.34 1021.11 1021.81 1022.53 1023.17 1023.58 1023.98 1024.27 1024.64 1024.84 1025.00 1025.48 1025.49 1026.08 1026.15 1026.55 1026.61 1026.89 1027.40 1027.86 1028.05 1028.34 1028.87 1029.20 1028.88 1029.25 1029.61 1029.80 1029.62 1029.29 1029.25 1029.44 1029.46 1029.89 1030.16 1030.53 1031.05 1031.19 1031.20 1030.86
1017.92 1018.68 1019.34 1020.05 1020.94 1021.61 1022.33 1022.87 1023.46 1023.60 1023.78 1024.15 1024.53 1024.54 1024.98 1025.13 1025.66 1026.12 1026.32 1026.59 1026.90 1027.04 1027.35 1027.67 1027.66 1028.23 1028.58 1029.02 1029.25 1029.57 1029.59 1029.82 1029.81 1029.66 1029.64 1029.55 1029.92 1030.29 1030.60 1030.78 1031.15 1031.24 1031.16
1017.60 1018.25 1019.10 1019.87 1020.60 1021.38 1021.76 1022.28 1022.78 1023.04 1023.07 1023.43 1024.12 1024.30 1025.00 1025.03 1025.43 1025.86 1026.12 1026.35 1026.53 1026.86 1026.90 1027.33 1027.29 1027.54 1028.06 1028.57 1028.81 1029.16 1029.39 1029.72 1029.76 1029.91 1030.01 1030.08 1030.31 1030.59 1030.75 1031.11 1031.12 1031.07 1030.44
1017.09 1017.77 1018.66 1019.35 1020.11 1020.53 1021.03 1021.54 1021.84 1022.24 1022.81 1023.16 1023.89 1023.94 1024.24 1024.69 1024.85 1025.15 1025.63 1025.81 1025.96 1026.25 1026.36 1026.65 1027.05 1026.95 1027.27 1027.85 1028.26 1028.75 1029.05 1029.34 1029.56 1029.89 1029.72 1029.81 1030.28 1030.40 1030.99 1031.13 1030.96 1030.74 1030.68
1016.66 1017.61 1018.42 1018.94 1019.42 1019.78 1020.38 1021.05 1021.57 1022.20 1022.66 1023.10 1023.48 1023.54 1023.95 1024.33 1024.48 1024.65 1024.89 1025.23 1025.37 1025.70 1025.57 1025.68 1026.03 1026.42 1026.74 1027.06 1027.27 1027.99 1028.37 1028.90 1029.23 1029.57 1029.77 1030.06 1030.54 1030.74 1030.80 1031.08 1031.04 1030.80 1030.57
1016.58 1017.47 1018.04 1018.60 1019.11 1019.67 1020.00 1020.43 1021.38 1021.78 1022.05 1022.91 1023.16 1023.32 1023.46 1023.68 1023.87 1024.03 1023.97 1024.08 1024.63 1024.77 1024.49 1024.76 1024.91 1025.55 1025.81 1026.07 1026.36 1026.75 1027.61 1028.49 1028.92 1029.13 1029.42 1029.42 1029.80 1030.07 1030.26 1030.62 1030.70 1030.70 1030.53
1016.63 1017.28 1017.78 1018.44 1018.94 1019.55 1020.08 1020.50 1021.51 1021.81 1022.56 1022.70 1022.64 1022.71 1022.66 1022.93 1022.96 1023.19 1023.19 1023.24 1023.34 1023.74 1023.86 1023.94 1024.29 1024.80 1025.12 1025.18 1025.37 1025.83 1026.68 1027.44 1028.22 1028.58 1028.63 1028.63 1028.88 1029.29 1029.83 1030.37 1030.52 1030.55 1030.61
1016.62 1017.59 1018.19 1018.60 1018.91 1019.73 1020.08 1020.26 1021.13 1021.65 1021.97 1022.05 1022.21 1021.92 1021.89 1022.08 1022.41 1022.56 1022.57 1022.50 1022.89 1022.98 1023.17 1023.51 1023.91 1024.12 1024.47 1024.49 1024.80 1024.86 1025.46 1026.41 1026.98 1027.41 1027.73 1028.05 1028.55 1029.33 1029.60 1029.65 1029.86 1029.97 1029.98
1017.11 1017.61 1018.29 1018.34 1019.10 1019.38 1020.08 1020.51 1020.72 1020.92 1021.27 1021.21 1021.22 1021.49 1021.43 1021.27 1021.36 1021.60 1021.65 1021.82 1022.13 1022.46 1022.80 1023.05 1023.42 1023.58 1023.80 1024.00 1024.12 1024.42 1025.10 1025.87 1026.30 1026.63 1027.06 1027.49 1028.03 1028.49 1028.77 1029.13 1029.30 1029.37 1029.30
1017.67 1018.21 1018.49 1018.91 1019.45 1019.79 1019.75 1020.24 1020.52 1020.76 1021.01 1021.13 1021.23 1021.26 1021.25 1021.29 1021.20 1021.19 1021.28 1021.52 1021.76 1022.14 1022.33 1022.42 1022.63 1022.86 1023.05 1023.25 1023.36 1023.66 1024.26 1024.88 1025.22 1025.71 1026.20 1026.60 1027.02 1027.50 1027.90 1028.45 1028.75 1028.91 1028.60
1018.21 1018.58 1018.93 1019.41 1019.69 1019.71 1020.00 1020.15 1020.37 1020.57 1020.71 1021.08 1021.12 1021.15 1021.00 1020.84 1020.90 1021.15 1021.27 1021.35 1021.36 1021.52 1021.63 1021.75 1021.85 1022.09 1022.29 1022.51 1022.67 1022.90 1023.13 1023.68 1024.25 1024.74 1025.14 1025.57 1026.09 1026.54 1027.04 1027.30 1027.62 1027.77 1027.71
1018.37 1018.79 1019.15 1019.96 1020.25 1020.39 1020.30 1020.47 1020.67 1020.62 1020.85 1021.01 1021.07 1020.78 1020.82 1020.75 1020.87 1021.00 1020.95 1020.86 1020.80 1020.79 1020.89 1020.94 1021.02 1021.24 1021.34 1021.54 1021.68 1021.83 1022.12 1022.65 1023.33 1023.73 1024.13 1024.45 1024.91 1025.36 1025.87 1026.14 1026.29 1026.56 1026.76
1018.92 1019.38 1019.94 1020.33 1020.47 1020.96 1020.94 1021.01 1020.86 1021.13 1021.06 1021.21 1021.18 1020.97 1020.85 1020.61 1020.91 1020.92 1020.68 1020.41 1020.18 1020.08 1020.10 1020.07 1020.10 1020.25 1020.39 1020.55 1020.72 1020.95 1021.22 1021.52 1022.02 1022.64 1023.00 1023.33 1023.71 1024.22 1024.48 1024.77 1025.13 1025.41 1025.79
1020.21 1020.16 1020.47 1020.77 1020.88 1021.34 1021.28 1021.10 1021.39 1021.57 1021.52 1021.35 1021.18 1021.47 1021.26 1020.89 1020.66 1020.60 1020.55 1020.41 1020.14 1019.90 1019.57 1019.44 1019.38 1019.37 1019.53 1019.69 1019.89 1020.08 1020.36 1020.71 1021.05 1021.49 1021.78 1022.12 1022.46 1022.94 1023.16 1023.44 1023.86 1024.22 1024.69
1020.83 1021.03 1021.25 1021.54 1021.83 1021.72 1021.12 1020.95 1022.04 1022.12 1021.92 1021.75 1021.64 1021.88 1021.55 1021.27 1020.54 1020.60 1020.55 1020.27 1020.01 1019.82 1019.70 1019.46 1019.11 1018.96 1019.08 1019.14 1019.27 1019.36 1019.56 1019.73 1020.00 1020.27 1020.58 1020.95 1021.41 1021.76 1022.11 1022.26 1022.66 1023.20 1023.50
1020.93 1021.33 1021.78 1021.87 1021.64 1022.35 1022.03 1021.45 1022.32 1022.49 1022.03 1021.76 1022.00 1021.64 1021.63 1021.76 1021.01 1021.04 1020.91 1020.56 1020.32 1020.19 1020.06 1019.77 1019.37 1018.97 1018.76 1018.70 1018.63 1018.65 1018.71 1018.84 1019.01 1019.26 1019.45 1019.77 1020.15 1020.59 1020.95 1021.36 1021.72 1022.04 1022.60
1022.03 1021.71 1021.81 1022.11 1022.01 1022.42 1022.50 1022.65 1022.69 1022.57 1022.15 1022.16 1022.15 1021.87 1022.21 1022.14 1021.59 1021.46 1021.18 1020.86 1020.62 1020.35 1020.08 1019.83 1019.40 1018.87 1018.46 1018.29 1018.16 1018.07 1018.01 1017.94 1017.93 1018.08 1018.37 1018.67 1019.04 1019.38 1019.79 1020.00 1020.35 1020.98 1021.40
1022.29 1021.95 1022.07 1022.32 1022.03 1022.64 1023.17 1023.08 1023.32 1022.93 1022.84 1022.61 1022.12 1022.26 1022.53 1022.31 1021.86 1021.62 1021.27 1020.97 1020.70 1020.40 1020.10 1019.80 1019.40 1019.00 1018.53 1018.11 1017.75 1017.59 1017.49 1017.37 1017.33 1017.39 1017.60 1017.84 1018.08 1018.43 1018.69 1019.04 1019.30 1019.74 1020.10
1023.03 1022.61 1022.53 1022.68 1023.02 1023.69 1023.54 1023.39 1023.62 1023.19 1023.02 1022.92 1022.60 1022.64 1022.80 1022.48 1022.06 1021.61 1021.30 1021.07 1020.88 1020.53 1020.12 1019.76 1019.29 1018.80 1018.35 1017.97 1017.64 1017.28 1017.02 1016.85 1016.74 1016.65 1016.76 1016.90 1017.05 1017.29 1017.63 1017.84 1018.07 1018.75 1019.63
1023.23 1023.18 1023.35 1023.68 1023.89 1023.62 1023.51 1024.05 1024.15 1023.89 1023.32 1023.23 1022.98 1023.00 1022.98 1022.59 1022.09 1021.74 1021.46 1021.16 1020.80 1020.41 1019.97 1019.48 1019.08 1018.70 1018.30 1017.84 1017.37 1016.96 1016.58 1016.24 1016.13 1016.04 1016.10 1016.16 1016.21 1016.37 1016.73 1017.00 1017.37 1017.80 1018.50
Thickness
5614 5608 5601 5594 5589 5580 5572 5562 5554 5544 5537 5531 5523 5518 5511 5505 5501 5495 5487 5482 5476 5467 5462 5457 5450 5443 5436 5427 5415 5406 5397 5390 5387 5377 5360 5350 5344 5339 5331 5329 5327 5321 5315
5607 5601 5593 5585 5578 5571 5563 5554 5545 5535 5527 5523 5516 5510 5503 5497 5493 5487 5482 5472 5470 5462 5455 5448 5442 5434 5429 5420 5408 5396 5385 5377 5371 5364 5353 5343 5336 5330 5325 5323 5320 5315 5310
5596 5589 5583 5577 5570 5564 5555 5545 5536 5529 5522 5516 5511 5505 5497 5491 5485 5480 5475 5466 5462 5456 5450 5446 5438 5429 5420 5410 5401 5391 5377 5367 5359 5351 5346 5336 5328 5320 5319 5316 5314 5310 5304
5582 5582 5575 5568 5562 5554 5544 5535 5528 5523 5515 5510 5504 5498 5491 5485 5480 5474 5465 5460 5456 5449 5444 5436 5428 5421 5411 5399 5390 5379 5368 5359 5348 5341 5337 5332 5326 5316 5309 5309 5308 5303 5299
5575 5571 5565 5559 5552 5543 5532 5526 5518 5514 5508 5504 5498 5490 5482 5477 5471 5466 5461 5458 5451 5442 5432 5423 5415 5409 5397 5387 5379 5368 5357 5351 5344 5338 5331 5325 5322 5313 5307 5300 5296 5294 5291
5569 5564 5558 5549 5539 5531 5523 5517 5511 5505 5501 5498 5493 5484 5479 5476 5471 5464 5458 5451 5444 5434 5425 5416 5408 5397 5387 5376 5365 5355 5348 5344 5341 5334 5327 5321 5316 5307 5299 5292 5288 5286 5288
5561 5555 5548 5539 5530 5523 5516 5510 5506 5501 5496 5490 5485 5480 5474 5470 5463 5457 5451 5445 5438 5427 5417 5408 5398 5386 5373 5366 5355 5343 5336 5332 5331 5326 5320 5315 5306 5300 5293 5283 5278 5274 5273
5552 5545 5537 5530 5522 5516 5509 5503 5499 5496 5492 5486 5480 5476 5469 5464 5457 5449 5443 5435 5427 5420 5410 5400 5392 5379 5367 5355 5345 5334 5330 5325 5321 5317 5311 5305 5298 5290 5283 5277 5271 5265 5261
5543 5537 5528 5521 5515 5509 5505 5501 5497 5492 5490 5484 5475 5469 5461 5458 5450 5441 5434 5426 5418 5408 5401 5389 5383 5373 5361 5349 5339 5330 5324 5319 5315 5308 5302 5296 5288 5281 5274 5266 5262 5257 5260
5537 5531 5523 5517 5511 5509 5504 5499 5496 5491 5484 5477 5467 5463 5457 5450 5444 5437 5428 5418 5409 5398 5393 5383 5373 5366 5355 5343 5334 5324 5318 5314 5307 5300 5294 5288 5279 5271 5262 5256 5251 5249 5246
5527 5521 5515 5512 5509 5506 5501 5496 5489 5482 5476 5468 5462 5458 5450 5443 5437 5431 5421 5411 5400 5390 5384 5376 5368 5357 5348 5339 5333 5322 5316 5307 5301 5292 5285 5277 5267 5259 5251 5244 5239 5235 5234
5518 5512 5510 5507 5503 5499 5496 5492 5482 5476 5472 5462 5457 5451 5445 5439 5433 5422 5415 5405 5394 5385 5379 5370 5364 5353 5345 5339 5331 5324 5312 5301 5293 5286 5276 5269 5259 5250 5243 5235 5229 5225 5222
5510 5506 5504 5499 5495 5491 5487 5481 5472 5467 5460 5456 5451 5446 5441 5432 5425 5414 5405 5396 5388 5380 5372 5365 5357 5349 5342 5337 5331 5322 5311 5299 5287 5278 5270 5263 5253 5243 5234 5226 5219 5216 5213
5503 5496 5491 5489 5487 5480 5477 5475 5466 5460 5454 5450 5444 5442 5435 5424 5412 5402 5394 5386 5377 5371 5368 5357 5350 5346 5338 5334 5327 5321 5312 5298 5286 5276 5267 5257 5246 5235 5227 5220 5213 5210 5206
5489 5485 5484 5483 5476 5474 5467 5463 5458 5455 5448 5445 5440 5432 5424 5418 5406 5394 5384 5376 5368 5361 5357 5353 5346 5340 5335 5330 5325 5316 5304 5291 5280 5272 5263 5252 5241 5232 5224 5215 5209 5204 5201
5477 5474 5473 5470 5464 5460 5460 5455 5448 5444 5439 5434 5427 5420 5411 5402 5392 5379 5371 5364 5359 5355 5354 5351 5345 5340 5335 5328 5321 5312 5301 5288 5279 5270 5260 5250 5241 5231 5222 5212 5205 5198 5197
5464 5461 5458 5455 5454 5454 5448 5446 5443 5435 5430 5423 5416 5408 5399 5390 5381 5372 5366 5363 5361 5357 5353 5350 5345 5339 5331 5323 5315 5307 5298 5287 5277 5268 5260 5251 5241 5231 5220 5213 5204 5198 5193
5452 5448 5449 5441 5439 5436 5435 5431 5426 5425 5419 5413 5403 5396 5387 5383 5377 5371 5368 5365 5362 5358 5353 5349 5344 5335 5328 5320 5312 5304 5296 5287 5275 5267 5259 5251 5241 5232 5221 5213 5207 5199 5191
5441 5436 5431 5427 5425 5420 5418 5416 5412 5405 5401 5395 5389 5383 5380 5378 5371 5367 5365 5364 5362 5358 5352 5346 5339 5331 5324 5317 5309 5302 5294 5286 5276 5266 5258 5250 5241 5231 5224 5215 5206 5197 5186
5419 5418 5415 5413 5412 5408 5406 5404 5395 5388 5384 5381 5377 5371 5370 5369 5368 5364 5360 5357 5354 5352 5348 5343 5335 5328 5320 5313 5306 5300 5292 5284 5275 5265 5258 5249 5241 5231 5223 5214 5204 5196 5183
5404 5402 5399 5397 5394 5393 5396 5394 5375 5370 5369 5366 5365 5360 5359 5358 5361 5356 5351 5348 5345 5341 5335 5331 5327 5321 5314 5307 5300 5295 5288 5281 5273 5265 5256 5248 5238 5229 5219 5212 5202 5190 5182
5393 5390 5386 5384 5384 5375 5376 5376 5361 5357 5358 5359 5354 5354 5350 5345 5348 5343 5339 5336 5332 5327 5321 5317 5314 5311 5306 5301 5296 5290 5284 5278 5271 5263 5255 5246 5237 5227 5217 5207 5197 5188 5175
5374 5377 5375 5371 5369 5361 5359 5353 5349 5347 5350 5347 5344 5343 5336 5331 5332 5328 5325 5323 5319 5314 5310 5306 5304 5302 5300 5295 5290 5285 5280 5275 5268 5261 5253 5244 5234 5224 5214 5205 5194 5182 5172
5360 5363 5361 5356 5357 5348 5340 5338 5331 5332 5332 5334 5335 5330 5322 5319 5319 5316 5313 5310 5307 5304 5300 5297 5294 5292 5290 5287 5284 5279 5274 5268 5262 5255 5247 5238 5229 5219 5210 5199 5189 5177 5168
5341 5345 5345 5343 5336 5326 5326 5325 5320 5323 5323 5322 5321 5316 5309 5307 5306 5305 5302 5299 5296 5293 5290 5288 5286 5284 5282 5279 5275 5271 5266 5261 5255 5248 5240 5232 5223 5214 5203 5193 5183 5170 5155
5330 5329 5326 5321 5317 5317 5317 5310 5308 5309 5312 5309 5307 5302 5296 5294 5294 5292 5290 5287 5285 5282 5280 5279 5276 5274 5271 5268 5265 5261 5257 5252 5246 5239 5231 5222 5214 5205 5193 5183 5171 5160 5148